Year,Month,Day,Hour,Minute,Value (Times are PST for temperature in C)
2013,03,31,00,00,5.30
2013,03,31,00,01,5.30
2013,03,31,00,02,5.30
2013,03,31,00,03,5.30
2013,03,31,00,04,5.20
2013,03,31,00,05,5.20
2013,03,31,00,06,5.20
2013,03,31,00,07,5.20
2013,03,31,00,08,5.20
2013,03,31,00,09,5.20
2013,03,31,00,10,5.10
2013,03,31,00,11,5.10
2013,03,31,00,12,5.10
2013,03,31,00,13,5.10
2013,03,31,00,14,5.10
2013,03,31,00,15,5.10
2013,03,31,00,16,5.10
2013,03,31,00,17,5.10
2013,03,31,00,18,5.10
2013,03,31,00,19,5.10
2013,03,31,00,20,5.10
2013,03,31,00,21,5.10
2013,03,31,00,22,5.00
2013,03,31,00,23,5.00
2013,03,31,00,24,5.00
2013,03,31,00,25,5.00
2013,03,31,00,26,5.00
2013,03,31,00,27,4.90
2013,03,31,00,28,4.90
2013,03,31,00,29,4.90
2013,03,31,00,30,4.90
2013,03,31,00,31,4.90
2013,03,31,00,32,4.80
2013,03,31,00,33,4.80
2013,03,31,00,34,4.80
2013,03,31,00,35,4.80
2013,03,31,00,36,4.80
2013,03,31,00,37,4.80
2013,03,31,00,38,4.80
2013,03,31,00,39,4.80
2013,03,31,00,40,4.80
2013,03,31,00,41,4.80
2013,03,31,00,42,4.80
2013,03,31,00,43,4.80
2013,03,31,00,44,4.80
2013,03,31,00,45,4.80
2013,03,31,00,46,4.80
2013,03,31,00,47,4.70
2013,03,31,00,48,4.70
2013,03,31,00,49,4.70
2013,03,31,00,50,4.70
2013,03,31,00,51,4.70
2013,03,31,00,52,4.70
2013,03,31,00,53,4.60
2013,03,31,00,54,4.60
2013,03,31,00,55,4.60
2013,03,31,00,56,4.50
2013,03,31,00,57,4.50
2013,03,31,00,58,4.40
2013,03,31,00,59,4.40
2013,03,31,01,00,4.40
2013,03,31,01,01,4.30
2013,03,31,01,02,4.30
2013,03,31,01,03,4.30
2013,03,31,01,04,4.30
2013,03,31,01,05,4.30
2013,03,31,01,06,4.30
2013,03,31,01,07,4.30
2013,03,31,01,08,4.30
2013,03,31,01,09,4.30
2013,03,31,01,10,4.30
2013,03,31,01,11,4.30
2013,03,31,01,12,4.30
2013,03,31,01,13,4.30
2013,03,31,01,14,4.30
2013,03,31,01,15,4.30
2013,03,31,01,16,4.30
2013,03,31,01,17,4.30
2013,03,31,01,18,4.30
2013,03,31,01,19,4.30
2013,03,31,01,20,4.20
2013,03,31,01,21,4.20
2013,03,31,01,22,4.20
2013,03,31,01,23,4.20
2013,03,31,01,24,4.10
2013,03,31,01,25,4.10
2013,03,31,01,26,4.10
2013,03,31,01,27,4.00
2013,03,31,01,28,4.00
2013,03,31,01,29,4.00
2013,03,31,01,30,4.00
2013,03,31,01,31,3.90
2013,03,31,01,32,3.90
2013,03,31,01,33,3.90
2013,03,31,01,34,3.90
2013,03,31,01,35,3.80
2013,03,31,01,36,3.80
2013,03,31,01,37,3.80
2013,03,31,01,38,3.70
2013,03,31,01,39,3.70
2013,03,31,01,40,3.70
2013,03,31,01,41,3.70
2013,03,31,01,42,3.80
2013,03,31,01,43,3.80
2013,03,31,01,44,3.80
2013,03,31,01,45,3.80
2013,03,31,01,46,3.80
2013,03,31,01,47,3.80
2013,03,31,01,48,3.80
2013,03,31,01,49,3.80
2013,03,31,01,50,3.80
2013,03,31,01,51,3.80
2013,03,31,01,52,3.80
2013,03,31,01,53,3.80
2013,03,31,01,54,3.80
2013,03,31,01,55,3.80
2013,03,31,01,56,3.80
2013,03,31,01,57,3.80
2013,03,31,01,58,3.80
2013,03,31,01,59,3.80
2013,03,31,02,00,3.80
2013,03,31,02,01,3.70
2013,03,31,02,02,3.70
2013,03,31,02,03,3.70
2013,03,31,02,04,3.70
2013,03,31,02,05,3.60
2013,03,31,02,06,3.60
2013,03,31,02,07,3.60
2013,03,31,02,08,3.60
2013,03,31,02,09,3.60
2013,03,31,02,10,3.50
2013,03,31,02,11,3.50
2013,03,31,02,12,3.50
2013,03,31,02,13,3.50
2013,03,31,02,14,3.50
2013,03,31,02,15,3.50
2013,03,31,02,16,3.50
2013,03,31,02,17,3.50
2013,03,31,02,18,3.50
2013,03,31,02,19,3.50
2013,03,31,02,20,3.50
2013,03,31,02,21,3.60
2013,03,31,02,22,3.60
2013,03,31,02,23,3.60
2013,03,31,02,24,3.60
2013,03,31,02,25,3.60
2013,03,31,02,26,3.50
2013,03,31,02,27,3.50
2013,03,31,02,28,3.50
2013,03,31,02,29,3.50
2013,03,31,02,30,3.50
2013,03,31,02,31,3.50
2013,03,31,02,32,3.50
2013,03,31,02,33,3.40
2013,03,31,02,34,3.40
2013,03,31,02,35,3.40
2013,03,31,02,36,3.50
2013,03,31,02,37,3.40
2013,03,31,02,38,3.50
2013,03,31,02,39,3.40
2013,03,31,02,40,3.40
2013,03,31,02,41,3.40
2013,03,31,02,42,3.40
2013,03,31,02,43,3.40
2013,03,31,02,44,3.40
2013,03,31,02,45,3.40
2013,03,31,02,46,3.40
2013,03,31,02,47,3.40
2013,03,31,02,48,3.40
2013,03,31,02,49,3.40
2013,03,31,02,50,3.40
2013,03,31,02,51,3.40
2013,03,31,02,52,3.40
2013,03,31,02,53,3.40
2013,03,31,02,54,3.40
2013,03,31,02,55,3.40
2013,03,31,02,56,3.40
2013,03,31,02,57,3.40
2013,03,31,02,58,3.40
2013,03,31,02,59,3.40
2013,03,31,03,00,3.40
2013,03,31,03,01,3.40
2013,03,31,03,02,3.40
2013,03,31,03,03,3.40
2013,03,31,03,04,3.40
2013,03,31,03,05,3.40
2013,03,31,03,06,3.40
2013,03,31,03,07,3.40
2013,03,31,03,08,3.40
2013,03,31,03,09,3.40
2013,03,31,03,10,3.40
2013,03,31,03,11,3.40
2013,03,31,03,12,3.40
2013,03,31,03,13,3.40
2013,03,31,03,14,3.40
2013,03,31,03,15,3.40
2013,03,31,03,16,3.40
2013,03,31,03,17,3.40
2013,03,31,03,18,3.40
2013,03,31,03,19,3.40
2013,03,31,03,20,3.40
2013,03,31,03,21,3.40
2013,03,31,03,22,3.40
2013,03,31,03,23,3.40
2013,03,31,03,24,3.30
2013,03,31,03,25,3.30
2013,03,31,03,26,3.40
2013,03,31,03,27,3.40
2013,03,31,03,28,3.40
2013,03,31,03,29,3.40
2013,03,31,03,30,3.40
2013,03,31,03,31,3.40
2013,03,31,03,32,3.40
2013,03,31,03,33,3.40
2013,03,31,03,34,3.40
2013,03,31,03,35,3.40
2013,03,31,03,36,3.40
2013,03,31,03,37,3.40
2013,03,31,03,38,3.50
2013,03,31,03,39,3.50
2013,03,31,03,40,3.50
2013,03,31,03,41,3.50
2013,03,31,03,42,3.60
2013,03,31,03,43,3.60
2013,03,31,03,44,3.60
2013,03,31,03,45,3.60
2013,03,31,03,46,3.60
2013,03,31,03,47,3.60
2013,03,31,03,48,3.60
2013,03,31,03,49,3.60
2013,03,31,03,50,3.70
2013,03,31,03,51,3.70
2013,03,31,03,52,3.70
2013,03,31,03,53,3.70
2013,03,31,03,54,3.70
2013,03,31,03,55,3.70
2013,03,31,03,56,3.70
2013,03,31,03,57,3.80
2013,03,31,03,58,3.80
2013,03,31,03,59,3.80
2013,03,31,04,00,3.80
2013,03,31,04,01,3.80
2013,03,31,04,02,3.80
2013,03,31,04,03,3.80
2013,03,31,04,04,3.80
2013,03,31,04,05,3.80
2013,03,31,04,06,3.80
2013,03,31,04,07,3.80
2013,03,31,04,08,3.80
2013,03,31,04,09,3.80
2013,03,31,04,10,3.80
2013,03,31,04,11,3.80
2013,03,31,04,12,3.80
2013,03,31,04,13,3.80
2013,03,31,04,14,3.80
2013,03,31,04,15,3.80
2013,03,31,04,16,3.80
2013,03,31,04,17,3.80
2013,03,31,04,18,3.90
2013,03,31,04,19,3.90
2013,03,31,04,20,3.90
2013,03,31,04,21,3.90
2013,03,31,04,22,3.90
2013,03,31,04,23,3.90
2013,03,31,04,24,4.00
2013,03,31,04,25,4.00
2013,03,31,04,26,4.00
2013,03,31,04,27,4.10
2013,03,31,04,28,4.10
2013,03,31,04,29,4.10
2013,03,31,04,30,4.10
2013,03,31,04,31,4.20
2013,03,31,04,32,4.30
2013,03,31,04,33,4.40
2013,03,31,04,34,4.50
2013,03,31,04,35,4.60
2013,03,31,04,36,4.60
2013,03,31,04,37,4.60
2013,03,31,04,38,4.60
2013,03,31,04,39,4.60
2013,03,31,04,40,4.70
2013,03,31,04,41,4.70
2013,03,31,04,42,4.70
2013,03,31,04,43,4.80
2013,03,31,04,44,4.80
2013,03,31,04,45,4.80
2013,03,31,04,46,4.80
2013,03,31,04,47,4.80
2013,03,31,04,48,4.70
2013,03,31,04,49,4.70
2013,03,31,04,50,4.80
2013,03,31,04,51,4.80
2013,03,31,04,52,4.80
2013,03,31,04,53,4.80
2013,03,31,04,54,4.90
2013,03,31,04,55,4.80
2013,03,31,04,56,4.90
2013,03,31,04,57,5.00
2013,03,31,04,58,5.00
2013,03,31,04,59,5.00
2013,03,31,05,00,5.00
2013,03,31,05,01,5.00
2013,03,31,05,02,5.00
2013,03,31,05,03,4.90
2013,03,31,05,04,5.00
2013,03,31,05,05,5.10
2013,03,31,05,06,5.10
2013,03,31,05,07,5.10
2013,03,31,05,08,5.00
2013,03,31,05,09,5.00
2013,03,31,05,10,5.00
2013,03,31,05,11,5.00
2013,03,31,05,12,5.00
2013,03,31,05,13,5.00
2013,03,31,05,14,5.10
2013,03,31,05,15,5.10
2013,03,31,05,16,5.10
2013,03,31,05,17,5.00
2013,03,31,05,18,5.00
2013,03,31,05,19,5.00
2013,03,31,05,20,5.00
2013,03,31,05,21,4.90
2013,03,31,05,22,4.80
2013,03,31,05,23,4.80
2013,03,31,05,24,4.80
2013,03,31,05,25,4.80
2013,03,31,05,26,4.80
2013,03,31,05,27,4.80
2013,03,31,05,28,4.80
2013,03,31,05,29,4.80
2013,03,31,05,30,4.80
2013,03,31,05,31,4.80
2013,03,31,05,32,4.80
2013,03,31,05,33,4.80
2013,03,31,05,34,4.80
2013,03,31,05,35,4.80
2013,03,31,05,36,4.90
2013,03,31,05,37,4.90
2013,03,31,05,38,4.90
2013,03,31,05,39,5.00
2013,03,31,05,40,5.00
2013,03,31,05,41,5.00
2013,03,31,05,42,5.10
2013,03,31,05,43,5.10
2013,03,31,05,44,5.10
2013,03,31,05,45,5.10
2013,03,31,05,46,5.10
2013,03,31,05,47,5.10
2013,03,31,05,48,5.10
2013,03,31,05,49,5.10
2013,03,31,05,50,5.10
2013,03,31,05,51,5.10
2013,03,31,05,52,5.20
2013,03,31,05,53,5.20
2013,03,31,05,54,5.20
2013,03,31,05,55,5.30
2013,03,31,05,56,5.40
2013,03,31,05,57,5.40
2013,03,31,05,58,5.40
2013,03,31,05,59,5.40
2013,03,31,06,00,5.40
2013,03,31,06,01,5.40
2013,03,31,06,02,5.40
2013,03,31,06,03,5.40
2013,03,31,06,04,5.30
2013,03,31,06,05,5.30
2013,03,31,06,06,5.30
2013,03,31,06,07,5.30
2013,03,31,06,08,5.30
2013,03,31,06,09,5.30
2013,03,31,06,10,5.30
2013,03,31,06,11,5.30
2013,03,31,06,12,5.20
2013,03,31,06,13,5.20
2013,03,31,06,14,5.20
2013,03,31,06,15,5.10
2013,03,31,06,16,5.10
2013,03,31,06,17,5.00
2013,03,31,06,18,5.00
2013,03,31,06,19,4.90
2013,03,31,06,20,4.90
2013,03,31,06,21,4.90
2013,03,31,06,22,4.80
2013,03,31,06,23,4.80
2013,03,31,06,24,4.80
2013,03,31,06,25,4.70
2013,03,31,06,26,4.70
2013,03,31,06,27,4.60
2013,03,31,06,28,4.60
2013,03,31,06,29,4.60
2013,03,31,06,30,4.50
2013,03,31,06,31,4.50
2013,03,31,06,32,4.50
2013,03,31,06,33,4.40
2013,03,31,06,34,4.40
2013,03,31,06,35,4.40
2013,03,31,06,36,4.30
2013,03,31,06,37,4.30
2013,03,31,06,38,4.30
2013,03,31,06,39,4.20
2013,03,31,06,40,4.20
2013,03,31,06,41,4.20
2013,03,31,06,42,4.10
2013,03,31,06,43,4.10
2013,03,31,06,44,4.10
2013,03,31,06,45,4.00
2013,03,31,06,46,4.00
2013,03,31,06,47,3.90
2013,03,31,06,48,3.90
2013,03,31,06,49,3.90
2013,03,31,06,50,3.80
2013,03,31,06,51,3.80
2013,03,31,06,52,3.80
2013,03,31,06,53,3.80
2013,03,31,06,54,3.70
2013,03,31,06,55,3.70
2013,03,31,06,56,3.70
2013,03,31,06,57,3.60
2013,03,31,06,58,3.60
2013,03,31,06,59,3.50
2013,03,31,07,00,3.50
2013,03,31,07,01,3.50
2013,03,31,07,02,3.50
2013,03,31,07,03,3.40
2013,03,31,07,04,3.40
2013,03,31,07,05,3.40
2013,03,31,07,06,3.40
2013,03,31,07,07,3.40
2013,03,31,07,08,3.40
2013,03,31,07,09,3.40
2013,03,31,07,10,3.40
2013,03,31,07,11,3.50
2013,03,31,07,12,3.50
2013,03,31,07,13,3.60
2013,03,31,07,14,3.60
2013,03,31,07,15,3.60
2013,03,31,07,16,3.60
2013,03,31,07,17,3.60
2013,03,31,07,18,3.70
2013,03,31,07,19,3.70
2013,03,31,07,20,3.70
2013,03,31,07,21,3.70
2013,03,31,07,22,3.80
2013,03,31,07,23,3.80
2013,03,31,07,24,3.80
2013,03,31,07,25,3.80
2013,03,31,07,26,3.80
2013,03,31,07,27,3.80
2013,03,31,07,28,3.80
2013,03,31,07,29,3.80
2013,03,31,07,30,3.80
2013,03,31,07,31,3.80
2013,03,31,07,32,3.80
2013,03,31,07,33,3.80
2013,03,31,07,34,3.80
2013,03,31,07,35,3.80
2013,03,31,07,36,3.80
2013,03,31,07,37,3.90
2013,03,31,07,38,3.90
2013,03,31,07,39,3.90
2013,03,31,07,40,3.90
2013,03,31,07,41,3.90
2013,03,31,07,42,4.00
2013,03,31,07,43,4.00
2013,03,31,07,44,4.10
2013,03,31,07,45,4.20
2013,03,31,07,46,4.30
2013,03,31,07,47,4.30
2013,03,31,07,48,4.40
2013,03,31,07,49,4.50
2013,03,31,07,50,4.60
2013,03,31,07,51,4.60
2013,03,31,07,52,4.60
2013,03,31,07,53,4.70
2013,03,31,07,54,4.70
2013,03,31,07,55,4.80
2013,03,31,07,56,4.80
2013,03,31,07,57,4.90
2013,03,31,07,58,4.90
2013,03,31,07,59,5.00
2013,03,31,08,00,5.10
2013,03,31,08,01,5.10
2013,03,31,08,02,5.20
2013,03,31,08,03,5.20
2013,03,31,08,04,5.20
2013,03,31,08,05,5.30
2013,03,31,08,06,5.30
2013,03,31,08,07,5.40
2013,03,31,08,08,5.40
2013,03,31,08,09,5.50
2013,03,31,08,10,5.50
2013,03,31,08,11,5.60
2013,03,31,08,12,5.70
2013,03,31,08,13,5.70
2013,03,31,08,14,5.80
2013,03,31,08,15,5.80
2013,03,31,08,16,5.90
2013,03,31,08,17,5.90
2013,03,31,08,18,6.00
2013,03,31,08,19,6.10
2013,03,31,08,20,6.10
2013,03,31,08,21,6.20
2013,03,31,08,22,6.20
2013,03,31,08,23,6.30
2013,03,31,08,24,6.30
2013,03,31,08,25,6.30
2013,03,31,08,26,6.40
2013,03,31,08,27,6.50
2013,03,31,08,28,6.50
2013,03,31,08,29,6.60
2013,03,31,08,30,6.70
2013,03,31,08,31,6.70
2013,03,31,08,32,6.80
2013,03,31,08,33,6.80
2013,03,31,08,34,6.90
2013,03,31,08,35,7.00
2013,03,31,08,36,7.10
2013,03,31,08,37,7.10
2013,03,31,08,38,7.20
2013,03,31,08,39,7.20
2013,03,31,08,40,7.30
2013,03,31,08,41,7.30
2013,03,31,08,42,7.40
2013,03,31,08,43,7.50
2013,03,31,08,44,7.50
2013,03,31,08,45,7.60
2013,03,31,08,46,7.60
2013,03,31,08,47,7.70
2013,03,31,08,48,7.70
2013,03,31,08,49,7.80
2013,03,31,08,50,7.80
2013,03,31,08,51,7.90
2013,03,31,08,52,7.90
2013,03,31,08,53,8.00
2013,03,31,08,54,8.10
2013,03,31,08,55,8.10
2013,03,31,08,56,8.20
2013,03,31,08,57,8.30
2013,03,31,08,58,8.40
2013,03,31,08,59,8.50
2013,03,31,09,00,8.60
2013,03,31,09,01,8.70
2013,03,31,09,02,8.80
2013,03,31,09,03,8.90
2013,03,31,09,04,9.00
2013,03,31,09,05,9.10
2013,03,31,09,06,9.30
2013,03,31,09,07,9.40
2013,03,31,09,08,9.50
2013,03,31,09,09,9.60
2013,03,31,09,10,9.60
2013,03,31,09,11,9.70
2013,03,31,09,12,9.80
2013,03,31,09,13,9.80
2013,03,31,09,14,9.90
2013,03,31,09,15,9.90
2013,03,31,09,16,9.90
2013,03,31,09,17,9.90
2013,03,31,09,18,9.90
2013,03,31,09,19,9.90
2013,03,31,09,20,9.90
2013,03,31,09,21,9.90
2013,03,31,09,22,9.90
2013,03,31,09,23,9.90
2013,03,31,09,24,9.90
2013,03,31,09,25,9.90
2013,03,31,09,26,9.90
2013,03,31,09,27,10.00
2013,03,31,09,28,10.10
2013,03,31,09,29,10.10
2013,03,31,09,30,10.10
2013,03,31,09,31,10.10
2013,03,31,09,32,10.20
2013,03,31,09,33,10.20
2013,03,31,09,34,10.20
2013,03,31,09,35,10.20
2013,03,31,09,36,10.30
2013,03,31,09,37,10.30
2013,03,31,09,38,10.40
2013,03,31,09,39,10.40
2013,03,31,09,40,10.40
2013,03,31,09,41,10.40
2013,03,31,09,42,10.50
2013,03,31,09,43,10.50
2013,03,31,09,44,10.50
2013,03,31,09,45,10.60
2013,03,31,09,46,10.60
2013,03,31,09,47,10.60
2013,03,31,09,48,10.60
2013,03,31,09,49,10.60
2013,03,31,09,50,10.60
2013,03,31,09,51,10.60
2013,03,31,09,52,10.60
2013,03,31,09,53,10.60
2013,03,31,09,54,10.60
2013,03,31,09,55,10.60
2013,03,31,09,56,10.60
2013,03,31,09,57,10.60
2013,03,31,09,58,10.60
2013,03,31,09,59,10.60
2013,03,31,10,00,10.70
2013,03,31,10,01,10.70
2013,03,31,10,02,10.80
2013,03,31,10,03,10.80
2013,03,31,10,04,10.80
2013,03,31,10,05,10.80
2013,03,31,10,06,10.90
2013,03,31,10,07,10.90
2013,03,31,10,08,11.00
2013,03,31,10,09,11.00
2013,03,31,10,10,11.10
2013,03,31,10,11,11.20
2013,03,31,10,12,11.20
2013,03,31,10,13,11.30
2013,03,31,10,14,11.30
2013,03,31,10,15,11.40
2013,03,31,10,16,11.40
2013,03,31,10,17,11.50
2013,03,31,10,18,11.50
2013,03,31,10,19,11.60
2013,03,31,10,20,11.70
2013,03,31,10,21,11.70
2013,03,31,10,22,11.80
2013,03,31,10,23,11.80
2013,03,31,10,24,11.90
2013,03,31,10,25,11.90
2013,03,31,10,26,11.90
2013,03,31,10,27,12.00
2013,03,31,10,28,12.00
2013,03,31,10,29,12.10
2013,03,31,10,30,12.10
2013,03,31,10,31,12.10
2013,03,31,10,32,12.10
2013,03,31,10,33,12.10
2013,03,31,10,34,12.10
2013,03,31,10,35,12.10
2013,03,31,10,36,12.10
2013,03,31,10,37,12.10
2013,03,31,10,38,12.20
2013,03,31,10,39,12.20
2013,03,31,10,40,12.20
2013,03,31,10,41,12.30
2013,03,31,10,42,12.30
2013,03,31,10,43,12.30
2013,03,31,10,44,12.30
2013,03,31,10,45,12.30
2013,03,31,10,46,12.30
2013,03,31,10,47,12.40
2013,03,31,10,48,12.40
2013,03,31,10,49,12.40
2013,03,31,10,50,12.40
2013,03,31,10,51,12.50
2013,03,31,10,52,12.50
2013,03,31,10,53,12.60
2013,03,31,10,54,12.60
2013,03,31,10,55,12.60
2013,03,31,10,56,12.60
2013,03,31,10,57,12.60
2013,03,31,10,58,12.60
2013,03,31,10,59,12.60
2013,03,31,11,00,12.60
2013,03,31,11,01,12.60
2013,03,31,11,02,12.70
2013,03,31,11,03,12.80
2013,03,31,11,04,12.80
2013,03,31,11,05,12.90
2013,03,31,11,06,13.00
2013,03,31,11,07,13.00
2013,03,31,11,08,13.10
2013,03,31,11,09,13.10
2013,03,31,11,10,13.20
2013,03,31,11,11,13.30
2013,03,31,11,12,13.30
2013,03,31,11,13,13.30
2013,03,31,11,14,13.40
2013,03,31,11,15,13.40
2013,03,31,11,16,13.50
2013,03,31,11,17,13.50
2013,03,31,11,18,13.60
2013,03,31,11,19,13.60
2013,03,31,11,20,13.60
2013,03,31,11,21,13.60
2013,03,31,11,22,13.60
2013,03,31,11,23,13.60
2013,03,31,11,24,13.60
2013,03,31,11,25,13.70
2013,03,31,11,26,13.70
2013,03,31,11,27,13.80
2013,03,31,11,28,13.90
2013,03,31,11,29,13.90
2013,03,31,11,30,14.00
2013,03,31,11,31,14.10
2013,03,31,11,32,14.20
2013,03,31,11,33,14.30
2013,03,31,11,34,14.40
2013,03,31,11,35,14.40
2013,03,31,11,36,14.50
2013,03,31,11,37,14.50
2013,03,31,11,38,14.60
2013,03,31,11,39,14.60
2013,03,31,11,40,14.70
2013,03,31,11,41,14.80
2013,03,31,11,42,14.80
2013,03,31,11,43,14.80
2013,03,31,11,44,14.90
2013,03,31,11,45,14.90
2013,03,31,11,46,14.90
2013,03,31,11,47,15.00
2013,03,31,11,48,15.00
2013,03,31,11,49,15.00
2013,03,31,11,50,15.00
2013,03,31,11,51,15.00
2013,03,31,11,52,15.00
2013,03,31,11,53,15.10
2013,03,31,11,54,15.20
2013,03,31,11,55,15.30
2013,03,31,11,56,15.30
2013,03,31,11,57,15.40
2013,03,31,11,58,15.40
2013,03,31,11,59,15.50
2013,03,31,12,00,15.50
2013,03,31,12,01,15.50
2013,03,31,12,02,15.50
2013,03,31,12,03,15.50
2013,03,31,12,04,15.50
2013,03,31,12,05,15.50
2013,03,31,12,06,15.50
2013,03,31,12,07,15.50
2013,03,31,12,08,15.50
2013,03,31,12,09,15.60
2013,03,31,12,10,15.70
2013,03,31,12,11,15.70
2013,03,31,12,12,15.80
2013,03,31,12,13,15.80
2013,03,31,12,14,15.80
2013,03,31,12,15,15.80
2013,03,31,12,16,15.80
2013,03,31,12,17,15.80
2013,03,31,12,18,15.80
2013,03,31,12,19,15.90
2013,03,31,12,20,15.90
2013,03,31,12,21,15.90
2013,03,31,12,22,15.90
2013,03,31,12,23,15.90
2013,03,31,12,24,15.90
2013,03,31,12,25,15.90
2013,03,31,12,26,15.90
2013,03,31,12,27,16.00
2013,03,31,12,28,16.10
2013,03,31,12,29,16.10
2013,03,31,12,30,16.10
2013,03,31,12,31,16.20
2013,03,31,12,32,16.20
2013,03,31,12,33,16.20
2013,03,31,12,34,16.20
2013,03,31,12,35,16.30
2013,03,31,12,36,16.30
2013,03,31,12,37,16.40
2013,03,31,12,38,16.40
2013,03,31,12,39,16.40
2013,03,31,12,40,16.40
2013,03,31,12,41,16.40
2013,03,31,12,42,16.40
2013,03,31,12,43,16.40
2013,03,31,12,44,16.40
2013,03,31,12,45,16.50
2013,03,31,12,46,16.50
2013,03,31,12,47,16.60
2013,03,31,12,48,16.70
2013,03,31,12,49,16.70
2013,03,31,12,50,16.70
2013,03,31,12,51,16.80
2013,03,31,12,52,16.80
2013,03,31,12,53,16.90
2013,03,31,12,54,17.00
2013,03,31,12,55,17.00
2013,03,31,12,56,17.10
2013,03,31,12,57,17.10
2013,03,31,12,58,17.00
2013,03,31,12,59,17.00
2013,03,31,13,00,17.00
2013,03,31,13,01,17.00
2013,03,31,13,02,17.10
2013,03,31,13,03,17.10
2013,03,31,13,04,17.10
2013,03,31,13,05,17.20
2013,03,31,13,06,17.20
2013,03,31,13,07,17.30
2013,03,31,13,08,17.30
2013,03,31,13,09,17.30
2013,03,31,13,10,17.30
2013,03,31,13,11,17.40
2013,03,31,13,12,17.40
2013,03,31,13,13,17.40
2013,03,31,13,14,17.50
2013,03,31,13,15,17.60
2013,03,31,13,16,17.60
2013,03,31,13,17,17.60
2013,03,31,13,18,17.60
2013,03,31,13,19,17.50
2013,03,31,13,20,17.50
2013,03,31,13,21,17.40
2013,03,31,13,22,17.40
2013,03,31,13,23,17.30
2013,03,31,13,24,17.30
2013,03,31,13,25,17.30
2013,03,31,13,26,17.30
2013,03,31,13,27,17.30
2013,03,31,13,28,17.30
2013,03,31,13,29,17.30
2013,03,31,13,30,17.40
2013,03,31,13,31,17.40
2013,03,31,13,32,17.40
2013,03,31,13,33,17.40
2013,03,31,13,34,17.40
2013,03,31,13,35,17.40
2013,03,31,13,36,17.50
2013,03,31,13,37,17.50
2013,03,31,13,38,17.60
2013,03,31,13,39,17.60
2013,03,31,13,40,17.50
2013,03,31,13,41,17.60
2013,03,31,13,42,17.60
2013,03,31,13,43,17.60
2013,03,31,13,44,17.60
2013,03,31,13,45,17.60
2013,03,31,13,46,17.60
2013,03,31,13,47,17.70
2013,03,31,13,48,17.70
2013,03,31,13,49,17.80
2013,03,31,13,50,17.80
2013,03,31,13,51,17.80
2013,03,31,13,52,17.80
2013,03,31,13,53,17.80
2013,03,31,13,54,17.90
2013,03,31,13,55,17.90
2013,03,31,13,56,17.90
2013,03,31,13,57,17.90
2013,03,31,13,58,17.90
2013,03,31,13,59,18.00
2013,03,31,14,00,18.10
2013,03,31,14,01,18.10
2013,03,31,14,02,18.10
2013,03,31,14,03,18.10
2013,03,31,14,04,18.10
2013,03,31,14,05,18.10
2013,03,31,14,06,18.10
2013,03,31,14,07,18.10
2013,03,31,14,08,18.20
2013,03,31,14,09,18.30
2013,03,31,14,10,18.40
2013,03,31,14,11,18.40
2013,03,31,14,12,18.50
2013,03,31,14,13,18.60
2013,03,31,14,14,18.70
2013,03,31,14,15,18.80
2013,03,31,14,16,18.80
2013,03,31,14,17,18.90
2013,03,31,14,18,19.00
2013,03,31,14,19,18.90
2013,03,31,14,20,18.90
2013,03,31,14,21,18.80
2013,03,31,14,22,18.80
2013,03,31,14,23,18.80
2013,03,31,14,24,18.80
2013,03,31,14,25,18.80
2013,03,31,14,26,18.90
2013,03,31,14,27,19.00
2013,03,31,14,28,19.10
2013,03,31,14,29,19.30
2013,03,31,14,30,19.40
2013,03,31,14,31,19.40
2013,03,31,14,32,19.40
2013,03,31,14,33,19.40
2013,03,31,14,34,19.40
2013,03,31,14,35,19.30
2013,03,31,14,36,19.40
2013,03,31,14,37,19.30
2013,03,31,14,38,19.30
2013,03,31,14,39,19.30
2013,03,31,14,40,19.30
2013,03,31,14,41,19.30
2013,03,31,14,42,19.20
2013,03,31,14,43,19.20
2013,03,31,14,44,19.20
2013,03,31,14,45,19.30
2013,03,31,14,46,19.30
2013,03,31,14,47,19.30
2013,03,31,14,48,19.30
2013,03,31,14,49,19.30
2013,03,31,14,50,19.20
2013,03,31,14,51,19.00
2013,03,31,14,52,19.00
2013,03,31,14,53,18.90
2013,03,31,14,54,18.90
2013,03,31,14,55,18.90
2013,03,31,14,56,18.80
2013,03,31,14,57,18.70
2013,03,31,14,58,18.70
2013,03,31,14,59,18.70
2013,03,31,15,00,18.70
2013,03,31,15,01,18.70
2013,03,31,15,02,18.70
2013,03,31,15,03,18.80
2013,03,31,15,04,18.90
2013,03,31,15,05,18.90
2013,03,31,15,06,18.90
2013,03,31,15,07,19.00
2013,03,31,15,08,19.00
2013,03,31,15,09,18.90
2013,03,31,15,10,18.90
2013,03,31,15,11,18.80
2013,03,31,15,12,18.90
2013,03,31,15,13,18.90
2013,03,31,15,14,19.00
2013,03,31,15,15,18.90
2013,03,31,15,16,18.80
2013,03,31,15,17,18.70
2013,03,31,15,18,18.60
2013,03,31,15,19,18.50
2013,03,31,15,20,18.40
2013,03,31,15,21,18.50
2013,03,31,15,22,18.50
2013,03,31,15,23,18.60
2013,03,31,15,24,18.60
2013,03,31,15,25,18.60
2013,03,31,15,26,18.70
2013,03,31,15,27,18.80
2013,03,31,15,28,18.80
2013,03,31,15,29,18.90
2013,03,31,15,30,18.90
2013,03,31,15,31,18.90
2013,03,31,15,32,18.90
2013,03,31,15,33,18.90
2013,03,31,15,34,18.90
2013,03,31,15,35,18.90
2013,03,31,15,36,18.90
2013,03,31,15,37,18.90
2013,03,31,15,38,18.90
2013,03,31,15,39,18.90
2013,03,31,15,40,19.00
2013,03,31,15,41,19.00
2013,03,31,15,42,19.10
2013,03,31,15,43,19.10
2013,03,31,15,44,19.10
2013,03,31,15,45,19.10
2013,03,31,15,46,19.10
2013,03,31,15,47,19.10
2013,03,31,15,48,19.10
2013,03,31,15,49,19.10
2013,03,31,15,50,19.10
2013,03,31,15,51,19.10
2013,03,31,15,52,19.10
2013,03,31,15,53,19.00
2013,03,31,15,54,19.10
2013,03,31,15,55,19.10
2013,03,31,15,56,19.20
2013,03,31,15,57,19.30
2013,03,31,15,58,19.30
2013,03,31,15,59,19.30
2013,03,31,16,00,19.40
2013,03,31,16,01,19.40
2013,03,31,16,02,19.60
2013,03,31,16,03,19.60
2013,03,31,16,04,19.70
2013,03,31,16,05,19.80
2013,03,31,16,06,19.90
2013,03,31,16,07,20.00
2013,03,31,16,08,20.10
2013,03,31,16,09,20.20
2013,03,31,16,10,20.30
2013,03,31,16,11,20.40
2013,03,31,16,12,20.60
2013,03,31,16,13,20.70
2013,03,31,16,14,20.90
2013,03,31,16,15,21.00
2013,03,31,16,16,21.10
2013,03,31,16,17,21.20
2013,03,31,16,18,21.10
2013,03,31,16,19,21.10
2013,03,31,16,20,21.00
2013,03,31,16,21,21.00
2013,03,31,16,22,21.10
2013,03,31,16,23,21.00
2013,03,31,16,24,21.00
2013,03,31,16,25,20.90
2013,03,31,16,26,20.80
2013,03,31,16,27,20.80
2013,03,31,16,28,20.80
2013,03,31,16,29,20.60
2013,03,31,16,30,20.50
2013,03,31,16,31,20.40
2013,03,31,16,32,20.40
2013,03,31,16,33,20.30
2013,03,31,16,34,20.20
2013,03,31,16,35,20.10
2013,03,31,16,36,20.00
2013,03,31,16,37,20.00
2013,03,31,16,38,19.90
2013,03,31,16,39,19.80
2013,03,31,16,40,19.70
2013,03,31,16,41,19.60
2013,03,31,16,42,19.60
2013,03,31,16,43,19.60
2013,03,31,16,44,19.60
2013,03,31,16,45,19.60
2013,03,31,16,46,19.60
2013,03,31,16,47,19.60
2013,03,31,16,48,19.60
2013,03,31,16,49,19.50
2013,03,31,16,50,19.50
2013,03,31,16,51,19.40
2013,03,31,16,52,19.30
2013,03,31,16,53,19.30
2013,03,31,16,54,19.30
2013,03,31,16,55,19.40
2013,03,31,16,56,19.40
2013,03,31,16,57,19.50
2013,03,31,16,58,19.50
2013,03,31,16,59,19.50
2013,03,31,17,00,19.40
2013,03,31,17,01,19.40
2013,03,31,17,02,19.40
2013,03,31,17,03,19.50
2013,03,31,17,04,19.50
2013,03,31,17,05,19.50
2013,03,31,17,06,19.50
2013,03,31,17,07,19.40
2013,03,31,17,08,19.40
2013,03,31,17,09,19.40
2013,03,31,17,10,19.40
2013,03,31,17,11,19.40
2013,03,31,17,12,19.40
2013,03,31,17,13,19.40
2013,03,31,17,14,19.50
2013,03,31,17,15,19.50
2013,03,31,17,16,19.50
2013,03,31,17,17,19.40
2013,03,31,17,18,19.30
2013,03,31,17,19,19.30
2013,03,31,17,20,19.30
2013,03,31,17,21,19.30
2013,03,31,17,22,19.30
2013,03,31,17,23,19.40
2013,03,31,17,24,19.40
2013,03,31,17,25,19.40
2013,03,31,17,26,19.40
2013,03,31,17,27,19.40
2013,03,31,17,28,19.40
2013,03,31,17,29,19.30
2013,03,31,17,30,19.20
2013,03,31,17,31,19.10
2013,03,31,17,32,19.00
2013,03,31,17,33,18.90
2013,03,31,17,34,18.80
2013,03,31,17,35,18.80
2013,03,31,17,36,18.80
2013,03,31,17,37,18.80
2013,03,31,17,38,18.70
2013,03,31,17,39,18.60
2013,03,31,17,40,18.60
2013,03,31,17,41,18.60
2013,03,31,17,42,18.60
2013,03,31,17,43,18.50
2013,03,31,17,44,18.50